This demonstration page uses our WeatherBlox Daily Observations layout. Learn more.

Left ArrowRight Arrow

Hourly Observations for April 5, 2019

Temp ( °F °C ) Dew Point ( °F °C ) Humidity (%) Winds ( mph kmh ) Pressure ( in mb ) Visibility ( mi km ) Precip ( " mm )
12:53 am 00:53 Clear 55 12.8 26 -3.3 33 33 ESE 8 13 29.89 1012 10 16 0.00 0.00
1:53 am 01:53 Clear 54 12.2 25 -3.9 33 33 ESE 7 11 29.88 1012 10 16 0.00 0.00
2:53 am 02:53 Clear 54 12.2 25 -3.9 33 33 E 3 6 29.88 1012 10 16 0.00 0.00
3:53 am 03:53 Clear 48 8.9 28 -2.2 46 46 NNE 5 7 29.88 1012 10 16 0.00 0.00
4:53 am 04:53 Clear 47 8.3 28 -2.2 48 48 E 7 11 29.86 1011 10 16 0.00 0.00
5:53 am 05:53 Clear 51 10.6 29 -1.7 43 43 ESE 9 15 29.85 1011 10 16 0.00 0.00
6:53 am 06:53 Clear 50 10 31 -0.6 48 48 E 6 9 29.86 1011 10 16 0.00 0.00
7:53 am 07:53 Sunny 49 9.4 33 0.6 55 55 E 6 9 29.88 1012 10 16 0.00 0.00
8:53 am 08:53 Sunny 60 15.6 36 2.2 41 41 ESE 13 20 29.88 1012 10 16 0.00 0.00
9:53 am 09:53 Sunny 65 18.3 37 2.8 36 36 SE 14 22 29.88 1012 10 16 0.00 0.00
10:53 am 10:53 Sunny 70 21.1 36 2.2 29 29 SE 14 22 29.87 1012 10 16 0.00 0.00
11:53 am 11:53 Sunny 72 22.2 37 2.8 28 28 SSE 13 20 29.87 1012 10 16 0.00 0.00
12:53 pm 12:53 Sunny 74 23.3 37 2.8 26 26 S 10 17 29.86 1011 10 16 0.00 0.00
1:53 pm 13:53 Sunny 78 25.6 37 2.8 23 23 SSE 13 20 29.82 1010 10 16 0.00 0.00
2:53 pm 14:53 Sunny 80 26.7 38 3.3 22 22 SE 10 17 29.78 1008 10 16 0.00 0.00
3:53 pm 15:53 Sunny 82 27.8 34 1.1 18 18 SSE 14 22 29.73 1007 10 16 0.00 0.00
4:30 pm 16:30 Sunny 82 27.8 35 1.7 18 18 SW 15 24 29.64 1004 10 16 0.00 0.00
4:53 pm 16:53 Sunny 84 28.9 34 1.1 17 17 SSW 12 19 29.72 1006 10 16 0.00 0.00
5:53 pm 17:53 Sunny 82 27.8 31 -0.6 16 16 SW 8 13 29.70 1006 10 16 0.00 0.00
6:53 pm 18:53 Sunny 80 26.7 32 0 17 17 W 9 15 29.71 1006 10 16 0.00 0.00
7:53 pm 19:53 Mostly Sunny 79 26.1 29 -1.7 16 16 NW 6 9 29.71 1006 10 16 0.00 0.00
8:53 pm 20:53 Mostly Clear 72 22.2 30 -1.1 21 21 WNW 9 15 29.68 1005 10 16 0.00 0.00
9:53 pm 21:53 Clear 67 19.4 31 -0.6 26 26 Calm 29.72 1006 10 16 0.00 0.00
10:53 pm 22:53 Clear 70 21.1 48 8.9 46 46 SE 9 15 29.72 1007 10 16 0.00 0.00
11:53 pm 23:53 Clear 70 21.1 50 10 49 49 ESE 9 15 29.73 1007 10 16 0.00 0.00

Powered by AerisWeather